Location: Unspecified
(0.0000°N, 0.0000°E)
Time: 18:18:52
(UTC+00:00)

DX 1 - Visible Passes

Search period start: 24 June 2019 00:00
Search period end: 04 July 2019 00:00
Orbit: 620 x 631 km, 98.4° (Epoch: 24 June)

Date Brightness Start Highest point End Pass type
(mag) Time Alt. Az. Time Alt. Az. Time Alt. Az.
24 Jun ? 03:56:26 12° NNW 03:56:26 12° NNW 03:56:45 10° NNW visible
27 Jun ? 03:16:26 11° NNE 03:16:26 11° NNE 03:16:34 10° NNE visible
28 Jun ? 03:35:31 13° N 03:35:31 13° N 03:35:57 10° N visible
29 Jun ? 03:54:37 12° NNW 03:54:37 12° NNW 03:54:56 10° NNW visible
03 Jul ? 03:33:44 12° N 03:33:44 12° N 03:34:05 10° N visible
